Regional Weather Roundup
Issued by NWS

Home | Current Version | Previous Version | Text Only | Print | Product List | Glossary On
Versions: 1 2 3 4 5 6 7 8 9 10 11 12 13 14 15 16 17 18 19 20 21 22 23 24 25 26 27 28 29 30 31 32 33 34 35 36 37 38 39 40 41 42 43 44 45 46 47 48
000
ASUS44 KBMX 300310
RWRAL

ALABAMA REGIONAL WEATHER ROUNDUP
NATIONAL WEATHER SERVICE BIRMINGHAM AL
1000 PM CDT SAT AUG 29 2015

NOTE: "FAIR" INDICATES FEW OR NO CLOUDS BELOW 12,000 FEET
WITH NO SIGNIFICANT WEATHER AND/OR OBSTRUCTIONS TO VISIBILITY.

THE REMARK "TC" DENOTES TEMPERATURE IN DEGREES CELSIUS.

ALZ001>011-014-016>018-020-300400-
NORTH ALABAMA

CITY           SKY/WX    TMP DP  RH WIND       PRES   REMARKS
MUSCLE SHOALS  MOCLDY    69  66  90 CALM      30.11R
HUNTSVILLE     CLOUDY    72  68  87 E3        30.10F
DECATUR        MOCLDY    70  68  93 E3        30.11F
HALEYVILLE     FAIR      68  68 100 CALM      30.13S
GADSDEN        CLOUDY    70  64  83 CALM      30.11S
$$

ALZ012-013-022-023-030>036-040>044-300400-
WEST CENTRAL ALABAMA

CITY           SKY/WX    TMP DP  RH WIND       PRES   REMARKS
TUSCALOOSA     LGT RAIN  75  70  84 SE5       30.08R
$$

ALZ015-024>027-033>036-040>044-300400-
CENTRAL ALABAMA

CITY           SKY/WX    TMP DP  RH WIND       PRES   REMARKS
BIRMINGHAM     CLOUDY    71  69  93 NE5       30.13R
MONTGOMERY     CLOUDY    73  70  90 E5        30.09S
SHELBY CO ARPT CLOUDY    71  69  93 VRB3      30.10S
MAXWELL AFB    CLOUDY    74  70  86 E7        30.08F
GREENVILLE     FAIR      71  68  90 CALM      30.06F
$$

ALZ019-021-028-029-037-038-045>048-300400-
EAST CENTRAL ALABAMA

CITY           SKY/WX    TMP DP  RH WIND       PRES   REMARKS
ANNISTON       CLOUDY    71  69  93 E3        30.13S
ALEXANDER CITY DRIZZLE   74  73  94 CALM      30.13S
AUBURN         CLOUDY    70  68  93 E9        30.13S
$$

ALZ051>064-300400-
SOUTHWEST ALABAMA

CITY           SKY/WX    TMP DP  RH WIND       PRES   REMARKS
MOBILE         PTCLDY    76  72  87 E3        30.06R
BROOKLEY FIELD CLEAR     81  72  74 E10       30.06R
EVERGREEN      CLOUDY    72  69  90 SE3       30.08S
$$

ALZ049-050-065>069-300400-
SOUTHEAST ALABAMA

CITY           SKY/WX    TMP DP  RH WIND       PRES   REMARKS
DOTHAN         RAIN      70  70 100 NW6       30.12F FOG
OZARK          MOCLDY    73  70  89 N5        30.08S
TROY           CLOUDY    71  70  96 E3        30.10S
EUFAULA        HVY RAIN  72  71  97 W8        30.08R VSB 1/2
$$



USA.gov is the U.S. government's official web portal to all federal, state and local government web resources and services.